Flag for Slovakia Weather past 2 weeks in Prešov, Slovakia

Now
43 °F

Passing clouds.


Feels Like: 36 °F
Forecast: 40 / 55 °F
Wind: 14 mph from Northeast

Location: Kosice - Barca

Current Time: Mar 29, 2015 at 1:15:12 AM

Latest Report: Mar 29, 2015 at 1:00 AM


Visibility: N/A

Pressure: 29.86 "Hg

Humidity: 76%

Dew point: 36 °F

Location of PrešovLocation

Historic Weather in Prešov — Graph

°F

Prešov temperature yesterday

Maximum temperature yesterday: 48 °F (at 12:00 AM)
Minimum temperature yesterday: 45 °F (at 5:30 AM)
Average temperature yesterday: 46 °F

Past Weeks' High & Low Weather Summary

 TemperatureHumidityPressure
High72 °F (Mar 27, 1:30 PM)100% (Mar 14, 10:30 PM)30.60 "Hg (Mar 14, 10:30 PM)
Low27 °F (Mar 20, 6:00 AM)22% (Mar 23, 3:30 PM)29.68 "Hg (Mar 27, 1:00 PM)
Average45 °F60%30.15 "Hg
* Reported Midnight between Mar 13 and Mar 14 — Midnight between Mar 28 and Mar 29, Prešov, Weather by CustomWeather, © 2015

Note: Actual official high and low records may vary slightly from our data, if they occured in-between our weather recording intervals... More about our weather records

Advertising

Prešov weather history for previous 24 hours

 ConditionsComfort  
Time TempWeatherWind HumidityBarometerVisibility
12:00 AM
Sun, Mar 29
45 °FPassing clouds.14 mph71%29.89 "HgN/A
11:30 PM
Sat, Mar 28
45 °FPassing clouds.13 mph71%29.89 "HgN/A
11:00 PM45 °FPassing clouds.13 mph71%29.89 "HgN/A
10:30 PM45 °FPassing clouds.13 mph71%29.89 "HgN/A
10:00 PM45 °FPassing clouds.15 mph71%29.89 "HgN/A
9:30 PM45 °FPassing clouds.13 mph71%29.89 "HgN/A
9:00 PM45 °FPassing clouds.17 mph71%29.92 "HgN/A
8:30 PM45 °FPassing clouds.15 mph71%29.92 "HgN/A
8:00 PM45 °FPassing clouds.15 mph71%29.92 "HgN/A
7:30 PM45 °FPassing clouds.15 mph71%29.92 "HgN/A
7:00 PM45 °FPassing clouds.14 mph71%29.92 "HgN/A
6:30 PM45 °FPassing clouds.17 mph71%29.92 "HgN/A
6:00 PM45 °FPassing clouds.17 mph71%29.89 "HgN/A
5:30 PM45 °FBroken clouds.18 mph71%29.92 "HgN/A
5:00 PM45 °FPartly sunny.15 mph71%29.89 "HgN/A
4:30 PM46 °FPartly sunny.21 mph62%29.89 "HgN/A
4:00 PM46 °FMostly cloudy.21 mph62%29.89 "HgN/A
3:30 PM46 °FMostly cloudy.21 mph62%29.89 "HgN/A
3:00 PM46 °FMostly cloudy.21 mph62%29.92 "HgN/A
2:30 PM46 °FPartly sunny.18 mph62%29.89 "HgN/A
2:00 PM46 °FPartly sunny.22 mph62%29.89 "HgN/A
1:30 PM46 °FBroken clouds.22 mph66%29.89 "HgN/A
1:00 PM46 °FPartly sunny.24 mph66%29.89 "HgN/A
12:30 PM48 °FPartly sunny.23 mph62%29.89 "HgN/A
12:00 PM48 °FBroken clouds.21 mph62%29.92 "HgN/A
11:30 AM48 °FPartly sunny.16 mph62%29.92 "HgN/A
11:00 AM46 °FLight rain. Partly sunny.20 mph66%29.92 "HgN/A
10:30 AM46 °FLight rain. Cloudy.22 mph71%29.92 "HgN/A
10:00 AM46 °FLight rain. Cloudy.18 mph71%29.92 "HgN/A
9:30 AM46 °FLight rain. Mostly cloudy.16 mph76%29.92 "HgN/A
9:00 AM45 °FLight rain. More clouds than sun.17 mph76%29.92 "HgN/A
8:30 AM46 °FLight rain. Mostly cloudy.21 mph71%29.92 "HgN/A
8:00 AM46 °FLight rain. Cloudy.22 mph71%29.89 "HgN/A
7:30 AM46 °FLight rain. More clouds than sun.22 mph66%29.89 "HgN/A
7:00 AM45 °FMore clouds than sun.21 mph66%29.89 "HgN/A
6:30 AM45 °FPartly sunny.20 mph66%29.89 "HgN/A
6:00 AM45 °FSunny.22 mph66%29.86 "Hg10 mi
5:30 AM45 °FSunny.24 mph66%29.86 "Hg10 mi
5:00 AM46 °FClear.28 mph57%29.86 "Hg10 mi
4:30 AM46 °FClear.26 mph57%29.86 "Hg10 mi
4:00 AM46 °FClear.24 mph57%29.86 "Hg10 mi
3:30 AM46 °FClear.25 mph57%29.86 "Hg10 mi
3:00 AM46 °FClear.22 mph62%29.86 "Hg10 mi
2:30 AM48 °FPassing clouds.24 mph58%29.83 "HgN/A
2:00 AM48 °FPassing clouds.25 mph58%29.83 "HgN/A
1:30 AM48 °FPassing clouds.29 mph58%29.83 "HgN/A
1:00 AM48 °FPassing clouds.26 mph62%29.83 "HgN/A
Weather by CustomWeather, © 2015

See weather overviewHow to use our weather pages